DLH2WY EDDF-EDDH

Flight info

Callsign DLH2WY
Flight time 0h 45m
Altitude 35000
Route MARUN3W/25C MARUN Y150 TOLGI DCT SAS/N0441F340 P605 NOLGO NOLGO6A
Aircraft A321/M-SDE3FGHIRWY/LB1

Departure

Time 2026-05-07 16:18
Airport Frankfurt Main Airport (EDDF)

Arrival

Time 2026-05-07 17:04
Airport Hamburg Helmut Schmidt Airport (EDDH)
Time Latitude Longitude Altitude Speed Heading
2026-05-07 15:17 50.04687 8.56701 363 ft 0 kts 115°
2026-05-07 15:58 50.04691 8.56687 363 ft 3 kts 115°
2026-05-07 15:58 50.04700 8.56658 360 ft 2 kts 115°
2026-05-07 15:59 50.04708 8.56634 357 ft 3 kts 144°
2026-05-07 15:59 50.04722 8.56627 362 ft 3 kts 204°
2026-05-07 15:59 50.04741 8.56642 358 ft 3 kts 204°
2026-05-07 15:59 50.04759 8.56655 361 ft 3 kts 208°
2026-05-07 16:00 50.04778 8.56671 363 ft 3 kts 206°
2026-05-07 16:00 50.04783 8.56675 362 ft 0 kts 205°
2026-05-07 16:08 50.04780 8.56673 356 ft 1 kts 205°
2026-05-07 16:08 50.04762 8.56658 362 ft 4 kts 211°
2026-05-07 16:08 50.04735 8.56613 363 ft 7 kts 232°
2026-05-07 16:08 50.04699 8.56542 361 ft 9 kts 231°
2026-05-07 16:09 50.04669 8.56446 358 ft 11 kts 249°
2026-05-07 16:09 50.04640 8.56323 362 ft 13 kts 249°
2026-05-07 16:09 50.04606 8.56183 359 ft 15 kts 249°
2026-05-07 16:09 50.04570 8.56032 363 ft 12 kts 249°
2026-05-07 16:10 50.04518 8.55952 360 ft 12 kts 199°
2026-05-07 16:10 50.04438 8.55915 357 ft 12 kts 195°
2026-05-07 16:10 50.04346 8.55928 361 ft 15 kts 160°
2026-05-07 16:10 50.04268 8.55960 356 ft 11 kts 188°
2026-05-07 16:11 50.04191 8.55918 353 ft 13 kts 174°
2026-05-07 16:11 50.04140 8.55944 355 ft 1 kts 160°
2026-05-07 16:12 50.04139 8.55945 352 ft 1 kts 160°
2026-05-07 16:12 50.04118 8.55957 357 ft 6 kts 160°
2026-05-07 16:12 50.04074 8.56010 354 ft 10 kts 114°
2026-05-07 16:12 50.04090 8.56121 358 ft 12 kts 70°
2026-05-07 16:13 50.04122 8.56257 359 ft 15 kts 69°
2026-05-07 16:13 50.04162 8.56424 358 ft 18 kts 70°
2026-05-07 16:13 50.04207 8.56613 360 ft 20 kts 70°
2026-05-07 16:13 50.04256 8.56820 364 ft 21 kts 70°
2026-05-07 16:14 50.04308 8.57038 364 ft 22 kts 70°
2026-05-07 16:14 50.04361 8.57257 363 ft 22 kts 70°
2026-05-07 16:14 50.04416 8.57487 364 ft 23 kts 69°
2026-05-07 16:14 50.04470 8.57715 366 ft 23 kts 69°
2026-05-07 16:15 50.04526 8.57948 364 ft 23 kts 70°
2026-05-07 16:15 50.04585 8.58197 369 ft 24 kts 70°
2026-05-07 16:15 50.04634 8.58402 370 ft 14 kts 69°
2026-05-07 16:15 50.04655 8.58515 371 ft 11 kts 94°
2026-05-07 16:16 50.04597 8.58586 372 ft 11 kts 159°
2026-05-07 16:16 50.04527 8.58623 371 ft 8 kts 168°
2026-05-07 16:16 50.04491 8.58600 371 ft 6 kts 242°
2026-05-07 16:16 50.04477 8.58544 370 ft 4 kts 249°
2026-05-07 16:17 50.04476 8.58542 370 ft 0 kts 249°
2026-05-07 16:17 50.04474 8.58532 372 ft 4 kts 249°
2026-05-07 16:18 50.04404 8.58240 370 ft 66 kts 250°
2026-05-07 16:18 50.04159 8.57214 368 ft 133 kts 250°
2026-05-07 16:18 50.03767 8.55566 441 ft 176 kts 249°
2026-05-07 16:18 50.03350 8.53824 1267 ft 172 kts 250°
2026-05-07 16:19 50.02925 8.52047 1890 ft 177 kts 252°
2026-05-07 16:19 50.02436 8.50282 2516 ft 180 kts 239°
2026-05-07 16:19 50.01569 8.48880 3137 ft 182 kts 216°
2026-05-07 16:19 50.00398 8.48068 3685 ft 192 kts 195°
2026-05-07 16:20 49.98998 8.47750 3994 ft 211 kts 189°
2026-05-07 16:20 49.97533 8.47438 4604 ft 214 kts 190°
2026-05-07 16:20 49.96054 8.47086 5199 ft 216 kts 194°
2026-05-07 16:20 49.94590 8.46394 5611 ft 229 kts 200°
2026-05-07 16:21 49.92990 8.45612 5902 ft 250 kts 202°
2026-05-07 16:21 49.91542 8.44208 6666 ft 247 kts 230°
2026-05-07 16:21 49.90719 8.41899 7356 ft 247 kts 258°
2026-05-07 16:21 49.90716 8.39254 8057 ft 248 kts 285°
2026-05-07 16:22 49.91514 8.36900 8795 ft 250 kts 312°
2026-05-07 16:22 49.92948 8.35378 9506 ft 254 kts 337°
2026-05-07 16:22 49.94641 8.34352 9914 ft 272 kts 336°
2026-05-07 16:22 49.96449 8.33188 10177 ft 291 kts 336°
2026-05-07 16:23 49.98382 8.31910 10319 ft 314 kts 336°
2026-05-07 16:23 50.00451 8.30547 10512 ft 331 kts 336°
2026-05-07 16:23 50.02646 8.29322 11036 ft 338 kts 345°
2026-05-07 16:23 50.04991 8.28838 11636 ft 343 kts 358°
2026-05-07 16:24 50.07373 8.29196 12243 ft 348 kts 11°
2026-05-07 16:24 50.09714 8.30457 12853 ft 354 kts 26°
2026-05-07 16:24 50.11848 8.32408 13473 ft 358 kts 29°
2026-05-07 16:24 50.13984 8.34406 14062 ft 361 kts 29°
2026-05-07 16:25 50.16153 8.36438 14618 ft 365 kts 30°
2026-05-07 16:25 50.18339 8.38493 15182 ft 368 kts 30°
2026-05-07 16:25 50.20538 8.40566 15737 ft 371 kts 30°
2026-05-07 16:25 50.22754 8.42661 16300 ft 374 kts 30°
2026-05-07 16:26 50.24988 8.44776 16853 ft 377 kts 30°
2026-05-07 16:26 50.27242 8.46913 17397 ft 381 kts 30°
2026-05-07 16:26 50.29514 8.49071 17939 ft 384 kts 30°
2026-05-07 16:26 50.31026 8.50510 18298 ft 386 kts 30°
2026-05-07 16:27 50.34113 8.53448 18931 ft 389 kts 30°
2026-05-07 16:27 50.36433 8.55656 19420 ft 391 kts 30°
2026-05-07 16:27 50.38763 8.57875 19893 ft 393 kts 30°
2026-05-07 16:27 50.41108 8.60113 20346 ft 396 kts 30°
2026-05-07 16:28 50.43469 8.62369 20803 ft 399 kts 30°
2026-05-07 16:28 50.45837 8.64636 21253 ft 401 kts 30°
2026-05-07 16:28 50.48230 8.66932 21694 ft 404 kts 30°
2026-05-07 16:28 50.50631 8.69237 22130 ft 406 kts 30°
2026-05-07 16:29 50.53045 8.71551 22575 ft 409 kts 30°
2026-05-07 16:29 50.55483 8.73887 23016 ft 411 kts 30°
2026-05-07 16:29 50.57930 8.76232 23431 ft 414 kts 30°
2026-05-07 16:29 50.60399 8.78606 23805 ft 417 kts 30°
2026-05-07 16:30 50.62875 8.80997 24179 ft 419 kts 30°
2026-05-07 16:30 50.65369 8.83407 24552 ft 421 kts 30°
2026-05-07 16:30 50.67876 8.85829 24926 ft 423 kts 30°
2026-05-07 16:30 50.70384 8.88257 25297 ft 425 kts 30°
2026-05-07 16:31 50.72913 8.90709 25662 ft 427 kts 30°
2026-05-07 16:31 50.75486 8.93208 26029 ft 429 kts 31°
2026-05-07 16:31 50.77993 8.95648 26382 ft 431 kts 31°
2026-05-07 16:31 50.80552 8.98142 26737 ft 433 kts 31°
2026-05-07 16:32 50.83120 9.00648 27102 ft 435 kts 31°
2026-05-07 16:32 50.85729 9.03193 27457 ft 437 kts 31°
2026-05-07 16:32 50.88324 9.05724 27799 ft 439 kts 31°
2026-05-07 16:32 50.90924 9.08261 28145 ft 441 kts 31°
2026-05-07 16:33 50.93552 9.10829 28489 ft 443 kts 31°
2026-05-07 16:33 50.95290 9.12531 28718 ft 444 kts 31°
2026-05-07 16:33 50.97913 9.15104 29059 ft 446 kts 30°
2026-05-07 16:33 51.00564 9.17712 29387 ft 448 kts 31°
2026-05-07 16:34 51.03214 9.20324 29700 ft 449 kts 30°
2026-05-07 16:34 51.05864 9.22941 29992 ft 451 kts 31°
2026-05-07 16:34 51.08545 9.25573 30251 ft 452 kts 28°
2026-05-07 16:34 51.11408 9.27589 30444 ft 452 kts 15°
2026-05-07 16:35 51.14461 9.28815 30673 ft 452 kts 12°
2026-05-07 16:35 51.17520 9.29964 30970 ft 451 kts 12°
2026-05-07 16:35 51.20580 9.31081 31276 ft 451 kts 12°
2026-05-07 16:35 51.23640 9.32173 31549 ft 450 kts 12°
2026-05-07 16:36 51.26699 9.33256 31823 ft 450 kts 12°
2026-05-07 16:36 51.29756 9.34340 32108 ft 450 kts 11°
2026-05-07 16:36 51.32808 9.35429 32397 ft 449 kts 12°
2026-05-07 16:36 51.35897 9.36541 32666 ft 449 kts 11°
2026-05-07 16:37 51.38926 9.37638 32963 ft 448 kts 11°
2026-05-07 16:37 51.41965 9.38744 33225 ft 448 kts 11°
2026-05-07 16:37 51.45013 9.39852 33519 ft 447 kts 12°
2026-05-07 16:37 51.48053 9.40956 33781 ft 447 kts 12°
2026-05-07 16:38 51.51080 9.42057 34070 ft 446 kts 12°
2026-05-07 16:38 51.54086 9.43151 34471 ft 441 kts 12°
2026-05-07 16:38 51.57074 9.44241 34723 ft 441 kts 12°
2026-05-07 16:38 51.60068 9.45337 34925 ft 441 kts 12°
2026-05-07 16:39 51.63062 9.46438 35050 ft 443 kts 12°
2026-05-07 16:39 51.69109 9.48609 35082 ft 445 kts
2026-05-07 16:40 51.75277 9.49178 35051 ft 444 kts
2026-05-07 16:40 51.78346 9.49376 34529 ft 442 kts
2026-05-07 16:40 51.81425 9.49569 33943 ft 441 kts
2026-05-07 16:40 51.84474 9.49756 33249 ft 439 kts
2026-05-07 16:41 51.87545 9.49945 32532 ft 439 kts
2026-05-07 16:41 51.90568 9.50129 32015 ft 434 kts
2026-05-07 16:41 51.93588 9.50315 31479 ft 430 kts
2026-05-07 16:41 51.96559 9.50498 30946 ft 427 kts
2026-05-07 16:42 51.99508 9.50677 30427 ft 423 kts
2026-05-07 16:42 52.02439 9.50856 29848 ft 419 kts
2026-05-07 16:42 52.05343 9.51032 29223 ft 416 kts
2026-05-07 16:42 52.08227 9.51209 28607 ft 413 kts
2026-05-07 16:43 52.11092 9.51391 28012 ft 410 kts
2026-05-07 16:43 52.13927 9.51575 27410 ft 407 kts
2026-05-07 16:43 52.16782 9.51760 26813 ft 404 kts
2026-05-07 16:43 52.19584 9.51937 26241 ft 401 kts
2026-05-07 16:44 52.22327 9.52107 25693 ft 399 kts
2026-05-07 16:44 52.25136 9.52281 25139 ft 396 kts
2026-05-07 16:44 52.27883 9.52452 24615 ft 394 kts
2026-05-07 16:44 52.30602 9.52622 24126 ft 392 kts
2026-05-07 16:45 52.33322 9.52791 23613 ft 389 kts
2026-05-07 16:45 52.36024 9.52963 23029 ft 387 kts
2026-05-07 16:45 52.38695 9.53133 22477 ft 383 kts
2026-05-07 16:45 52.41354 9.53300 21931 ft 380 kts
2026-05-07 16:46 52.43992 9.53464 21414 ft 377 kts
2026-05-07 16:46 52.46609 9.53626 20883 ft 374 kts
2026-05-07 16:46 52.49192 9.53790 20358 ft 371 kts
2026-05-07 16:46 52.51749 9.53956 19837 ft 367 kts
2026-05-07 16:47 52.54296 9.54121 19325 ft 364 kts
2026-05-07 16:47 52.56818 9.54285 18816 ft 361 kts
2026-05-07 16:47 52.59324 9.54449 18369 ft 359 kts
2026-05-07 16:47 52.61802 9.54609 17901 ft 356 kts
2026-05-07 16:48 52.64269 9.54768 17401 ft 353 kts
2026-05-07 16:48 52.66710 9.54925 16910 ft 350 kts
2026-05-07 16:48 52.69144 9.55081 16449 ft 348 kts
2026-05-07 16:48 52.71549 9.55232 15997 ft 345 kts
2026-05-07 16:49 52.73949 9.55382 15523 ft 343 kts
2026-05-07 16:49 52.76330 9.55535 15022 ft 340 kts
2026-05-07 16:49 52.78681 9.55687 14508 ft 337 kts
2026-05-07 16:49 52.81018 9.55839 14015 ft 335 kts
2026-05-07 16:50 52.83337 9.55993 13474 ft 332 kts
2026-05-07 16:50 52.85634 9.56141 13040 ft 327 kts
2026-05-07 16:50 52.87916 9.56288 12776 ft 329 kts
2026-05-07 16:50 52.90166 9.56433 12512 ft 319 kts
2026-05-07 16:51 52.92348 9.56574 12250 ft 310 kts
2026-05-07 16:51 52.94472 9.56713 11991 ft 302 kts
2026-05-07 16:51 52.96581 9.56847 11722 ft 296 kts
2026-05-07 16:51 52.98605 9.56977 11473 ft 295 kts
2026-05-07 16:52 53.00676 9.57110 11213 ft 293 kts
2026-05-07 16:52 53.02687 9.57239 11074 ft 292 kts
2026-05-07 16:52 53.04748 9.57375 11078 ft 293 kts
2026-05-07 16:52 53.06773 9.57512 10905 ft 291 kts
2026-05-07 16:53 53.08766 9.57645 10509 ft 289 kts
2026-05-07 16:53 53.10795 9.57780 10119 ft 288 kts
2026-05-07 16:53 53.12789 9.57909 9719 ft 286 kts
2026-05-07 16:53 53.14772 9.58035 9331 ft 283 kts
2026-05-07 16:54 53.16725 9.58160 8960 ft 280 kts
2026-05-07 16:54 53.18657 9.58287 8621 ft 277 kts
2026-05-07 16:54 53.20581 9.58416 8251 ft 275 kts
2026-05-07 16:54 53.22485 9.58545 7909 ft 273 kts
2026-05-07 16:55 53.24371 9.58670 7579 ft 271 kts
2026-05-07 16:55 53.26245 9.58795 7288 ft 269 kts
2026-05-07 16:55 53.28112 9.58919 6999 ft 267 kts
2026-05-07 16:55 53.29959 9.59040 6598 ft 265 kts
2026-05-07 16:56 53.31792 9.59162 6168 ft 262 kts
2026-05-07 16:56 53.33608 9.59282 5738 ft 261 kts
2026-05-07 16:56 53.37224 9.59519 4945 ft 260 kts
2026-05-07 16:57 53.38987 9.59637 4802 ft 249 kts
2026-05-07 16:57 53.40686 9.59745 4670 ft 238 kts
2026-05-07 16:57 53.42304 9.59945 4466 ft 229 kts 14°
2026-05-07 16:57 53.43768 9.60858 4181 ft 224 kts 33°
2026-05-07 16:58 53.44952 9.62481 4023 ft 219 kts 50°
2026-05-07 16:58 53.45889 9.64363 3996 ft 204 kts 51°
2026-05-07 16:58 53.46800 9.66184 4004 ft 203 kts 51°
2026-05-07 16:58 53.47705 9.67990 4006 ft 202 kts 51°
2026-05-07 16:59 53.48592 9.69761 4003 ft 191 kts 51°
2026-05-07 16:59 53.49417 9.71422 3910 ft 182 kts 51°
2026-05-07 16:59 53.50225 9.73045 3687 ft 180 kts 51°
2026-05-07 16:59 53.51037 9.74673 3469 ft 179 kts 51°
2026-05-07 17:00 53.51835 9.76272 3217 ft 178 kts 51°
2026-05-07 17:00 53.52632 9.77869 2972 ft 178 kts 52°
2026-05-07 17:00 53.53427 9.79465 2736 ft 178 kts 51°
2026-05-07 17:00 53.54222 9.81060 2484 ft 178 kts 52°
2026-05-07 17:01 53.55013 9.82648 2240 ft 175 kts 52°
2026-05-07 17:01 53.55774 9.84177 2033 ft 164 kts 52°
2026-05-07 17:01 53.56473 9.85581 1796 ft 150 kts 52°
2026-05-07 17:01 53.57116 9.86875 1587 ft 140 kts 52°
2026-05-07 17:02 53.57736 9.88124 1409 ft 137 kts 52°
2026-05-07 17:02 53.58345 9.89350 1222 ft 137 kts 51°
2026-05-07 17:02 53.58946 9.90560 1035 ft 133 kts 50°
2026-05-07 17:02 53.59543 9.91765 844 ft 134 kts 52°
2026-05-07 17:03 53.60143 9.92980 661 ft 137 kts 51°
2026-05-07 17:03 53.60751 9.94201 469 ft 135 kts 51°
2026-05-07 17:03 53.61356 9.95425 283 ft 137 kts 51°
2026-05-07 17:03 53.61956 9.96639 94 ft 134 kts 51°
2026-05-07 17:04 53.62533 9.97803 41 ft 113 kts 50°
2026-05-07 17:04 53.62945 9.98636 45 ft 69 kts 50°
2026-05-07 17:04 53.63182 9.99116 47 ft 36 kts 50°
2026-05-07 17:04 53.63275 9.99332 47 ft 19 kts 67°
2026-05-07 17:05 53.63290 9.99448 47 ft 12 kts 85°
2026-05-07 17:05 53.63284 9.99586 45 ft 6 kts 99°
2026-05-07 17:05 53.63282 9.99607 48 ft 0 kts 99°
2026-05-07 17:06 53.63281 9.99616 48 ft 2 kts 99°
2026-05-07 17:06 53.63277 9.99653 48 ft 5 kts 99°
2026-05-07 17:06 53.63256 9.99727 48 ft 9 kts 136°
2026-05-07 17:06 53.63195 9.99785 48 ft 11 kts 153°
2026-05-07 17:07 53.63126 9.99845 48 ft 9 kts 151°
2026-05-07 17:07 53.63132 9.99937 46 ft 10 kts 53°
2026-05-07 17:07 53.63179 10.00033 48 ft 12 kts 50°
2026-05-07 17:07 53.63225 10.00125 48 ft 10 kts 50°
2026-05-07 17:08 53.63239 10.00189 48 ft 6 kts 111°
2026-05-07 17:08 53.63199 10.00214 48 ft 7 kts 173°
2026-05-07 17:08 53.63165 10.00260 48 ft 7 kts 96°
2026-05-07 17:08 53.63166 10.00327 48 ft 2 kts 86°
2026-05-07 17:09 53.63167 10.00358 48 ft 2 kts 86°
2026-05-07 17:09 53.63167 10.00359 48 ft 0 kts 86°